Location: Zagreb
(45.8000°N, 16.0000°E)
Time: 21:12:59
(UTC+01:00)

deb Explorer IX - Pass Details

Date: 09 October 2020
Orbit: 537 x 1106 km, 38.8° (Epoch: 30 October)

Event Time Altitude Azimuth Distance (km) Brightness Sun altitude
Rises 14:36:09 0° 238° (WSW) 3,760 ? 31.9°
Reaches altitude 10° 14:39:11 10° 231° (SW) 2,734 ? 31.6°
Maximum altitude 14:45:05 36° 167° (SSE) 1,384 ? 31.0°
Drops below altitude 10° 14:50:14 10° 103° (ESE) 2,378 ? 30.5°
Sets 14:52:42 0° 94° (E) 3,215 ? 30.2°
